Location: Cajon Junction
(34.3117°N, 117.4748°W)
Time: 14:53:50
(UTC+00:00)

MINOTAUR IV R/B - Pass Details

Date: 18 April 2024
Orbit: 614 x 635 km, 72.0° (Epoch: 15 May)

Event Time Altitude Azimuth Distance (km) Brightness Sun altitude
Rises 12:23:00 0° 337° (NNW) 2,895 8.0 -10.9°
Reaches altitude 10° 12:25:16 10° 335° (NNW) 1,983 7.1 -10.5°
Maximum altitude 12:29:41 69° 253° (WSW) 659 4.5 -9.6°
Drops below altitude 10° 12:34:03 10° 170° (S) 1,964 7.0 -8.8°
Sets 12:36:17 0° 168° (SSE) 2,865 7.9 -8.3°
